Location: Loup Canal
(41.4930°N, 97.5670°W)
Time: 22:38:16
(UTC-05:00)

Daily predictions for brighter satellites

Satellite Brightness Start Highest point End
(mag) Time Altitude Azimuth Time Altitude Azimuth Time Altitude Azimuth
Cosmos 2322 Rocket 3.0 21:31:46 10° NNW 21:37:13 53° WSW 21:42:37 10° S
Cosmos 2151 3.7 21:37:27 10° SSE 21:41:15 35° E 21:45:06 10° NNE
Cosmos 1515 Rocket 3.6 21:38:31 10° N 21:42:58 88° W 21:47:22 10° S
Cosmos 1777 Rocket 4.1 21:37:52 10° SSW 21:43:08 88° ESE 21:48:26 10° NNE
NOSS 3-1 (C) 4.0 21:39:59 10° S 21:45:06 33° ESE 21:50:37 10° NE
Cosmos 2360 Rocket 2.3 21:40:31 10° NNW 21:46:11 67° ENE 21:51:48 10° SSE
USA 186 3.9 21:47:06 10° SW 21:48:37 16° W 21:50:09 10° NW
SL-16 R/B 3.2 21:43:21 10° NW 21:48:45 45° WSW 21:54:06 10° S
DELTA 2 R/B (1) 3.9 21:47:14 10° W 21:52:39 55° SSW 21:58:03 10° ESE
Cosmos 1908 3.2 21:50:21 10° N 21:54:16 82° E 21:58:11 10° S
CZ-4 SHROUD 4.0 21:51:36 10° SE 21:54:30 36° ENE 21:57:25 10° N
Cosmos 2058 3.8 21:52:45 10° SSE 21:56:21 30° E 21:59:58 10° NNE
Meteor 2-20 Rocket 4.5 21:53:19 10° S 21:59:26 74° E 22:05:35 10° NNE
Cosmos 1151 Rocket 3.0 21:55:30 10° N 21:59:50 82° E 22:04:10 10° S
Cosmos 405 3.1 21:57:59 10° N 22:01:38 86° W 22:05:14 10° S
Cosmos 1674 2.7 21:58:34 10° S 22:02:24 87° W 22:06:17 10° N
Cosmos 2266 Rocket 4.1 22:03:43 10° S 22:10:02 87° W 22:16:16 10° N
Cosmos 1805 Rocket 4.0 22:06:54 10° SSE 22:11:09 45° E 22:15:24 10° NNE
CZ-4B R/B 4.0 22:06:41 10° NNE 22:11:41 42° E 22:16:33 10° S
H-2A R/B 3.7 22:08:07 10° ESE 22:12:01 21° ENE 22:15:58 10° NNE
Cosmos 2227 Rocket 3.7 22:11:30 13° SE 22:13:59 17° E 22:17:27 10° ENE
Tiangong 1 1.7 22:11:19 10° SW 22:14:10 34° SSE 22:17:01 10° E
Cosmos 1680 Rocket 3.6 22:09:09 10° NNW 22:14:25 84° WSW 22:19:32 11° SSE
Cosmos 1300 3.3 22:11:29 10° N 22:15:09 40° ENE 22:17:53 16° SE
YAOGAN 6 3.0 22:12:45 14° SE 22:15:37 47° ENE 22:19:06 10° N
Cosmos 2315 Rocket 4.0 22:09:41 10° N 22:15:54 69° E 22:21:57 10° SSE
SPOT 1/Viking Rocket 3.8 22:19:48 14° SSE 22:24:03 57° ENE 22:29:06 10° N
Cosmos 1939 Rocket 4.0 22:22:38 10° SSW 22:26:20 39° W 22:30:00 10° NNW
Cosmos 2333 Rocket 3.5 22:22:09 10° N 22:27:09 29° NE 22:31:18 14° ESE
SL-16 R/B 4.4 22:24:33 10° NNE 22:27:12 13° NE 22:29:50 10° ENE
Cosmos 1898 Rocket 3.8 22:22:35 10° S 22:27:30 46° ESE 22:32:27 10° NNE
H-2A R/B 3.3 22:23:38 10° S 22:27:53 41° W 22:32:10 10° NNW
DELTA 2 R/B(2) 3.5 22:26:40 10° WSW 22:28:20 46° S 22:29:22 25° ESE
Cosmos 1707 Rocket 3.6 22:25:24 10° N 22:29:44 64° E 22:32:56 18° SSE
Cosmos 1666 Rocket 3.6 22:29:56 13° S 22:33:40 59° E 22:38:02 10° NNE
Cosmos 2150 Rocket 4.2 22:29:37 10° S 22:34:55 56° ESE 22:40:16 10° NNE
PSLV R/B 4.0 22:32:59 14° S 22:35:29 48° W 22:38:27 10° NNW
Meteor 2-11 Rocket 4.5 22:29:43 10° N 22:35:52 71° E 22:40:46 16° SSE
SPOT 5 3.3 22:32:36 10° S 22:37:02 57° W 22:41:48 10° NNW
Cosmos 1455 4.0 22:34:55 10° NNE 22:37:34 18° ENE 22:38:49 15° E
MetOp-A 4.3 22:33:17 12° S 22:38:13 75° WSW 22:43:36 10° NNW
COSMOS 2428 2.7 22:33:28 10° NNW 22:39:11 87° ENE 22:43:18 19° SSE
Cosmos 2297 Rocket 3.5 22:39:29 18° ESE 22:40:56 20° E 22:44:52 10° NE
ARGOS 3.2 22:41:02 19° SSE 22:45:00 75° ENE 22:50:23 10° N
Cosmos 2219 Rocket 2.6 22:41:42 10° NNW 22:47:10 51° ENE 22:50:35 22° SE
Cosmos 1470 Rocket 4.4 22:45:42 24° SE 22:47:19 32° E 22:51:10 10° NNE
Cosmos 1933 Rocket 4.5 22:46:48 24° SE 22:48:32 32° E 22:52:31 10° NNE
NOSS 3-1 (A) 3.3 22:42:59 10° SSW 22:48:49 73° ESE 22:55:18 10° NE
Cosmos 1745 Rocket 4.2 22:47:12 19° SSE 22:51:33 52° E 22:57:31 10° NNE
Cosmos 1726 2.2 22:52:17 10° N 22:56:04 78° W 22:58:06 26° S
CZ-4C R/B 3.1 22:59:54 37° SE 23:01:03 62° ENE 23:04:29 10° N
NOSS 0 Rocket 4.1 22:55:38 10° NNW 23:01:45 62° ENE 23:05:19 26° SE
ERBS 3.3 23:05:21 31° E 23:05:21 31° E 23:07:46 10° ENE
Cosmos 1980 4.1 23:00:42 10° NNW 23:06:14 53° ENE 23:09:10 27° SE
USA 32 4.0 23:01:18 10° N 23:06:37 85° E 23:09:42 25° S
Cosmos 292 Rocket 3.7 23:02:14 10° NNW 23:07:02 86° ENE 23:09:18 31° SSE
Landsat 7 3.8 23:05:56 29° SSE 23:08:19 76° ENE 23:13:06 10° N
Delta 2 Rocket 4.0 23:06:32 10° WSW 23:09:00 27° SSW 23:09:00 27° SSW
ATLAS 2AS CENTAUR R/B 3.2 23:05:37 16° S 23:11:14 46° ESE 23:18:46 10° NE
Cosmos 2219 4.4 23:06:28 10° SW 23:11:56 43° WNW 23:17:24 10° NNE
Cosmos 1271 Rocket 2.8 23:10:00 10° NNW 23:13:50 75° W 23:15:19 36° S
Cosmos 1346 3.2 23:17:15 54° E 23:17:15 54° E 23:20:06 10° NNE
Meteor 1-4 Rocket 3.0 23:14:48 10° NNW 23:18:31 57° W 23:19:52 34° SSW
Cosmos 1703 3.3 23:16:40 29° SSW 23:18:34 75° W 23:22:28 10° N
Cosmos 2237 Rocket 2.4 23:13:11 10° NNW 23:18:51 62° ENE 23:21:31 31° SE
Meteor 2-10 4.2 23:15:18 10° N 23:21:03 86° W 23:24:06 29° S
Cosmos 2242 Rocket 4.0 23:17:34 10° NNW 23:21:59 58° W 23:24:14 27° SSW
Cosmos 2082 3.7 23:19:48 25° S 23:23:08 63° ESE 23:28:47 10° NNE
Iridium 2 3.8 23:22:18 36° SSW 23:23:46 73° W 23:27:38 10° N
Terra 1.8 23:22:18 37° SSE 23:24:11 77° ENE 23:28:58 10° N
Cosmos 1937 Rocket 3.6 23:21:29 13° SSW 23:26:13 73° WNW 23:31:26 10° NNE
ATLAS 3B R/B 3.4 23:20:19 10° NNW 23:27:02 44° NE 23:31:15 21° ESE
Lacrosse 4 Rocket 3.2 23:24:15 10° N 23:27:58 25° NE 23:29:44 20° E
Spot 4 3.9 23:26:34 38° SE 23:28:19 66° ENE 23:33:09 10° N
Cosmos 1862 Rocket 3.5 23:24:10 10° N 23:28:31 74° E 23:29:43 46° SSE
Cosmos 2360 Rocket 4.4 23:26:04 10° WNW 23:29:32 17° W 23:33:00 10° SW
Sich 1 4.4 23:25:43 11° SW 23:29:33 38° WNW 23:33:40 10° N
CARTOSAT-1 3.5 23:28:16 43° SSE 23:29:40 88° W 23:34:01 10° NNW
Cosmos 1633 Rocket 4.4 23:29:42 12° SW 23:33:21 36° WNW 23:37:24 10° N
Cosmos 1626 2.0 23:35:44 58° S 23:36:25 90° WNW 23:40:12 10° N
Cosmos 990 Rocket 4.0 23:33:44 23° SSW 23:36:59 82° WNW 23:42:10 10° NNE
OAO 2 Rocket 3.8 23:37:38 10° WSW 23:42:20 40° S 23:42:20 40° S
Tiangong 1 2.4 23:47:32 10° W 23:49:20 31° W 23:49:20 31° W
COSMOS 2455 3.2 23:44:56 10° NNW 23:50:53 57° ENE 23:53:21 34° ESE
H-2A R/B 2.6 23:48:41 32° SSW 23:50:58 55° W 23:56:19 10° NNW
Cosmos 1269 Rocket 4.2 23:47:41 10° NNW 23:52:58 61° ENE 23:54:28 43° SE
Cosmos 1933 3.5 23:50:36 10° N 23:54:37 58° E 23:54:51 56° E
